sat.trackr.live / text

‹ back to catalog

GEESAT-5 10

NORAD 65559 · 2025-201K

PAYLOAD ACTIVE UNKNOWN

§ Identity

Operator
Country
PRC
Launch date
2025-09-08
Launch site
YSLA
Launch vehicle
Mass (kg)
RCS (m²)

External: N2YO · Heavens-Above · Gunter

§ Orbital elements

Epoch: 2026-05-24T10:40:36.963264Z

Period
97.03 min
Inclination
49.9813°
Eccentricity
0.0007567
Mean motion
14.84087303 rev/d
Perigee alt
611.2 km
Apogee alt
621.7 km
Semi-major
6,994.6 km
B*
1.5196e-4
RAAN
148.9580°
Arg perigee
197.1298°
Mean anomaly
162.9385°
Rev number
3,827

§ Raw data

GEESAT-5 101 65559U 25201K   26144.44487226  .00001054  00000+0  15196-3 0  99982 65559  49.9813 148.9580 0007567 197.1298 162.9385 14.84087303 38275

JSON: /api/v1/satellites/65559 · /tle

For live sub-satellite position, see the globe view (requires WebGL).

§ Visibility from observer

Set your observer location to see the next 7 days of passes ≥ 10°. The values pass through the URL so the page stays shareable.

No JS? Fill the form by hand. The geolocation button needs JavaScript.